Location: Unnamed
(33.0780°N, 97.0417°W)
Time: 18:41:51
(UTC-05:00)

ISS - Visible Passes

Search period start: 30 July 2021 00:00
Search period end: 09 August 2021 00:00
Orbit: 419 x 421 km, 51.6° (Epoch: 30 July)

Date Brightness Start Highest point End Pass type
(mag) Time Alt. Az. Time Alt. Az. Time Alt. Az.
30 Jul -1.2 21:38:46 10° N 21:40:23 13° NNE 21:42:01 10° ENE visible
30 Jul -0.9 23:14:11 10° NW 23:15:08 18° NW 23:15:08 18° NW visible
31 Jul -2.9 22:26:55 10° NW 22:29:35 46° N 22:29:35 46° N visible
01 Aug -2.6 21:39:49 10° NNW 21:42:53 31° NE 21:44:06 24° ENE visible
02 Aug -1.8 20:52:54 10° NNW 20:55:27 20° NE 20:58:00 10° E visible
02 Aug -2.2 22:29:14 10° WNW 22:31:39 31° WSW 22:31:39 31° WSW visible
03 Aug -3.7 21:41:44 10° NW 21:45:05 70° SW 21:46:19 35° SSE visible
04 Aug -3.5 20:54:27 10° NW 20:57:48 59° NE 21:01:03 10° ESE visible
05 Aug -1.4 21:44:40 10° W 21:47:03 18° SW 21:48:53 13° SSW visible
06 Aug -2.3 20:56:47 10° WNW 20:59:52 33° SW 21:02:56 10° SSE visible
